Time,TemperatureF,DewpointF,PressureIn,WindDirection,WindDirectionDegrees,WindSpeedMPH,WindSpeedGustMPH,Humidity,HourlyPrecipIn,Conditions,Clouds,dailyrainin,SoftwareType,DateUTC
2013-07-12 00:00:00,71.0,-99.9,-100.00,West,266,15.0,21.0,-999,-99.99,,,-99.99,,2013-07-12 06:00:00,
2013-07-12 00:33:00,71.0,-99.9,-100.00,West,266,15.0,21.0,-999,-99.99,,,-99.99,,2013-07-12 06:33:00,
2013-07-12 00:42:00,71.0,-99.9,-100.00,West,266,15.0,21.0,-999,-99.99,,,-99.99,,2013-07-12 06:42:00,
2013-07-12 00:52:00,71.0,-99.9,-100.00,West,266,15.0,21.0,-999,-99.99,,,-99.99,,2013-07-12 06:52:00,
2013-07-12 01:00:00,72.0,-99.9,-100.00,ESE,112,5.0,7.0,-999,-99.99,,,-99.99,,2013-07-12 07:00:00,
2013-07-12 01:33:00,72.0,-99.9,-100.00,ESE,112,5.0,7.0,-999,-99.99,,,-99.99,,2013-07-12 07:33:00,
2013-07-12 01:43:00,72.0,-99.9,-100.00,ESE,112,5.0,7.0,-999,-99.99,,,-99.99,,2013-07-12 07:43:00,
2013-07-12 01:52:00,72.0,-99.9,-100.00,ESE,112,5.0,7.0,-999,-99.99,,,-99.99,,2013-07-12 07:52:00,
2013-07-12 02:00:00,67.0,-99.9,-100.00,SSE,165,6.0,6.0,-999,-99.99,,,-99.99,,2013-07-12 08:00:00,
2013-07-12 02:32:00,67.0,-99.9,-100.00,SSE,165,6.0,6.0,-999,-99.99,,,-99.99,,2013-07-12 08:32:00,
2013-07-12 02:42:00,67.0,-99.9,-100.00,SSE,165,6.0,6.0,-999,-99.99,,,-99.99,,2013-07-12 08:42:00,
2013-07-12 02:53:00,67.0,-99.9,-100.00,SSE,165,6.0,6.0,-999,-99.99,,,-99.99,,2013-07-12 08:53:00,
2013-07-12 04:00:00,70.0,-99.9,-100.00,WSW,245,12.0,15.0,-999,-99.99,,,-99.99,,2013-07-12 10:00:00,
2013-07-12 04:33:00,70.0,-99.9,-100.00,WSW,245,12.0,15.0,-999,-99.99,,,-99.99,,2013-07-12 10:33:00,
2013-07-12 04:43:00,70.0,-99.9,-100.00,WSW,245,12.0,15.0,-999,-99.99,,,-99.99,,2013-07-12 10:43:00,
2013-07-12 04:52:00,70.0,-99.9,-100.00,WSW,245,12.0,15.0,-999,-99.99,,,-99.99,,2013-07-12 10:52:00,
2013-07-12 05:00:00,71.0,-99.9,-100.00,West,274,14.0,17.0,-999,-99.99,,,-99.99,,2013-07-12 11:00:00,
2013-07-12 05:43:00,71.0,-99.9,-100.00,West,274,14.0,17.0,-999,-99.99,,,-99.99,,2013-07-12 11:43:00,
2013-07-12 05:53:00,71.0,-99.9,-100.00,West,274,14.0,17.0,-999,-99.99,,,-99.99,,2013-07-12 11:53:00,
2013-07-12 06:00:00,69.0,-99.9,-100.00,West,280,17.0,20.0,-999,-99.99,,,-99.99,,2013-07-12 12:00:00,
2013-07-12 06:32:00,69.0,-99.9,-100.00,West,280,17.0,20.0,-999,-99.99,,,-99.99,,2013-07-12 12:32:00,
2013-07-12 06:43:00,69.0,-99.9,-100.00,West,280,17.0,20.0,-999,-99.99,,,-99.99,,2013-07-12 12:43:00,
2013-07-12 06:53:00,69.0,-99.9,-100.00,West,280,17.0,20.0,-999,-99.99,,,-99.99,,2013-07-12 12:53:00,
2013-07-12 07:32:00,70.0,-99.9,-100.00,WNW,287,15.0,22.0,-999,-99.99,,,-99.99,,2013-07-12 13:32:00,
2013-07-12 07:43:00,70.0,-99.9,-100.00,WNW,287,15.0,22.0,-999,-99.99,,,-99.99,,2013-07-12 13:43:00,
2013-07-12 07:53:00,70.0,-99.9,-100.00,WNW,287,15.0,22.0,-999,-99.99,,,-99.99,,2013-07-12 13:53:00,
2013-07-12 08:00:00,70.0,-99.9,-100.00,West,268,12.0,16.0,-999,-99.99,,,-99.99,,2013-07-12 14:00:00,
2013-07-12 08:44:00,70.0,-99.9,-100.00,West,268,12.0,16.0,-999,-99.99,,,-99.99,,2013-07-12 14:44:00,
2013-07-12 08:53:00,70.0,-99.9,-100.00,West,268,12.0,16.0,-999,-99.99,,,-99.99,,2013-07-12 14:53:00,
2013-07-12 09:00:00,72.0,-99.9,-100.00,WNW,302,6.0,11.0,-999,-99.99,,,-99.99,,2013-07-12 15:00:00,
2013-07-12 09:33:00,72.0,-99.9,-100.00,WNW,302,6.0,11.0,-999,-99.99,,,-99.99,,2013-07-12 15:33:00,
2013-07-12 09:43:00,72.0,-99.9,-100.00,WNW,302,6.0,11.0,-999,-99.99,,,-99.99,,2013-07-12 15:43:00,
2013-07-12 09:53:00,72.0,-99.9,-100.00,WNW,302,6.0,11.0,-999,-99.99,,,-99.99,,2013-07-12 15:53:00,
2013-07-12 10:00:00,73.0,-99.9,-100.00,West,267,15.0,20.0,-999,-99.99,,,-99.99,,2013-07-12 16:00:00,
2013-07-12 10:32:00,73.0,-99.9,-100.00,West,267,15.0,20.0,-999,-99.99,,,-99.99,,2013-07-12 16:32:00,
2013-07-12 10:43:00,73.0,-99.9,-100.00,West,267,15.0,20.0,-999,-99.99,,,-99.99,,2013-07-12 16:43:00,
2013-07-12 11:00:00,80.0,-99.9,-100.00,West,275,11.0,15.0,-999,-99.99,,,-99.99,,2013-07-12 17:00:00,
2013-07-12 11:47:00,80.0,-99.9,-100.00,West,275,11.0,15.0,-999,-99.99,,,-99.99,,2013-07-12 17:47:00,
2013-07-12 12:00:00,81.0,-99.9,-100.00,NW,323,10.0,11.0,-999,-99.99,,,-99.99,,2013-07-12 18:00:00,
2013-07-12 12:36:00,81.0,-99.9,-100.00,NW,323,10.0,11.0,-999,-99.99,,,-99.99,,2013-07-12 18:36:00,
2013-07-12 12:59:00,81.0,-99.9,-100.00,NW,323,10.0,11.0,-999,-99.99,,,-99.99,,2013-07-12 18:59:00,
2013-07-12 13:00:00,84.0,-99.9,-100.00,NNE,13,1.0,7.0,-999,-99.99,,,-99.99,,2013-07-12 19:00:00,
2013-07-12 13:25:00,84.0,-99.9,-100.00,NNE,13,1.0,7.0,-999,-99.99,,,-99.99,,2013-07-12 19:25:00,
2013-07-12 13:35:00,84.0,-99.9,-100.00,NNE,13,1.0,7.0,-999,-99.99,,,-99.99,,2013-07-12 19:35:00,
2013-07-12 13:49:00,84.0,-99.9,-100.00,NNE,13,1.0,7.0,-999,-99.99,,,-99.99,,2013-07-12 19:49:00,
2013-07-12 13:59:00,84.0,-99.9,-100.00,NNE,13,1.0,7.0,-999,-99.99,,,-99.99,,2013-07-12 19:59:00,
2013-07-12 14:00:00,86.0,-99.9,-100.00,SSE,163,9.0,12.0,-999,-99.99,,,-99.99,,2013-07-12 20:00:00,
2013-07-12 14:24:00,86.0,-99.9,-100.00,SSE,163,9.0,12.0,-999,-99.99,,,-99.99,,2013-07-12 20:24:00,
2013-07-12 14:35:00,86.0,-99.9,-100.00,SSE,163,9.0,12.0,-999,-99.99,,,-99.99,,2013-07-12 20:35:00,
2013-07-12 14:47:00,86.0,-99.9,-100.00,SSE,163,9.0,12.0,-999,-99.99,,,-99.99,,2013-07-12 20:47:00,
2013-07-12 14:56:00,86.0,-99.9,-100.00,SSE,163,9.0,12.0,-999,-99.99,,,-99.99,,2013-07-12 20:56:00,
2013-07-12 15:00:00,88.0,-99.9,-100.00,SSE,162,16.0,22.0,-999,-99.99,,,-99.99,,2013-07-12 21:00:00,
2013-07-12 15:36:00,88.0,-99.9,-100.00,SSE,162,16.0,22.0,-999,-99.99,,,-99.99,,2013-07-12 21:36:00,
2013-07-12 15:50:00,88.0,-99.9,-100.00,SSE,162,16.0,22.0,-999,-99.99,,,-99.99,,2013-07-12 21:50:00,
2013-07-12 15:59:00,88.0,-99.9,-100.00,SSE,162,16.0,22.0,-999,-99.99,,,-99.99,,2013-07-12 21:59:00,
2013-07-12 16:00:00,86.0,-99.9,-100.00,SE,131,11.0,23.0,-999,-99.99,,,-99.99,,2013-07-12 22:00:00,
2013-07-12 16:25:00,86.0,-99.9,-100.00,SE,131,11.0,23.0,-999,-99.99,,,-99.99,,2013-07-12 22:25:00,
2013-07-12 16:35:00,86.0,-99.9,-100.00,SE,131,11.0,23.0,-999,-99.99,,,-99.99,,2013-07-12 22:35:00,
2013-07-12 16:47:00,86.0,-99.9,-100.00,SE,131,11.0,23.0,-999,-99.99,,,-99.99,,2013-07-12 22:47:00,
2013-07-12 16:56:00,86.0,-99.9,-100.00,SE,131,11.0,23.0,-999,-99.99,,,-99.99,,2013-07-12 22:56:00,
2013-07-12 17:00:00,85.0,-99.9,-100.00,SE,126,17.0,22.0,-999,-99.99,,,-99.99,,2013-07-12 23:00:00,
2013-07-12 17:27:00,85.0,-99.9,-100.00,SE,126,17.0,22.0,-999,-99.99,,,-99.99,,2013-07-12 23:27:00,
2013-07-12 17:38:00,85.0,-99.9,-100.00,SE,126,17.0,22.0,-999,-99.99,,,-99.99,,2013-07-12 23:38:00,
2013-07-12 17:46:00,85.0,-99.9,-100.00,SE,126,17.0,22.0,-999,-99.99,,,-99.99,,2013-07-12 23:46:00,
2013-07-12 17:59:00,85.0,-99.9,-100.00,SE,126,17.0,22.0,-999,-99.99,,,-99.99,,2013-07-12 23:59:00,
2013-07-12 18:00:00,83.0,-99.9,-100.00,ESE,112,14.0,18.0,-999,-99.99,,,-99.99,,2013-07-13 00:00:00,
2013-07-12 18:27:00,83.0,-99.9,-100.00,ESE,112,14.0,18.0,-999,-99.99,,,-99.99,,2013-07-13 00:27:00,
2013-07-12 18:35:00,83.0,-99.9,-100.00,ESE,112,14.0,18.0,-999,-99.99,,,-99.99,,2013-07-13 00:35:00,
2013-07-12 18:50:00,83.0,-99.9,-100.00,ESE,112,14.0,18.0,-999,-99.99,,,-99.99,,2013-07-13 00:50:00,
2013-07-12 18:57:00,83.0,-99.9,-100.00,ESE,112,14.0,18.0,-999,-99.99,,,-99.99,,2013-07-13 00:57:00,
2013-07-12 19:26:00,86.0,-99.9,-100.00,WNW,282,20.0,26.0,-999,-99.99,,,-99.99,,2013-07-13 01:26:00,
2013-07-12 19:42:00,86.0,-99.9,-100.00,WNW,282,20.0,26.0,-999,-99.99,,,-99.99,,2013-07-13 01:42:00,
2013-07-12 19:51:00,86.0,-99.9,-100.00,WNW,282,20.0,26.0,-999,-99.99,,,-99.99,,2013-07-13 01:51:00,
2013-07-12 19:58:00,86.0,-99.9,-100.00,WNW,282,20.0,26.0,-999,-99.99,,,-99.99,,2013-07-13 01:58:00,
2013-07-12 20:00:00,84.0,-99.9,-100.00,West,260,13.0,18.0,-999,-99.99,,,-99.99,,2013-07-13 02:00:00,
2013-07-12 20:26:00,84.0,-99.9,-100.00,West,260,13.0,18.0,-999,-99.99,,,-99.99,,2013-07-13 02:26:00,
2013-07-12 20:39:00,84.0,-99.9,-100.00,West,260,13.0,18.0,-999,-99.99,,,-99.99,,2013-07-13 02:39:00,
2013-07-12 20:58:00,84.0,-99.9,-100.00,West,260,13.0,18.0,-999,-99.99,,,-99.99,,2013-07-13 02:58:00,
2013-07-12 21:00:00,78.0,-99.9,-100.00,West,266,6.0,7.0,-999,-99.99,,,-99.99,,2013-07-13 03:00:00,
2013-07-12 21:38:00,78.0,-99.9,-100.00,West,266,6.0,7.0,-999,-99.99,,,-99.99,,2013-07-13 03:38:00,
2013-07-12 21:48:00,78.0,-99.9,-100.00,West,266,6.0,7.0,-999,-99.99,,,-99.99,,2013-07-13 03:48:00,
2013-07-12 21:59:00,78.0,-99.9,-100.00,West,266,6.0,7.0,-999,-99.99,,,-99.99,,2013-07-13 03:59:00,
2013-07-12 22:00:00,72.0,-99.9,-100.00,SW,228,10.0,11.0,-999,-99.99,,,-99.99,,2013-07-13 04:00:00,
2013-07-12 22:22:00,72.0,-99.9,-100.00,SW,228,10.0,11.0,-999,-99.99,,,-99.99,,2013-07-13 04:22:00,
2013-07-12 22:32:00,72.0,-99.9,-100.00,SW,228,10.0,11.0,-999,-99.99,,,-99.99,,2013-07-13 04:32:00,
2013-07-12 22:44:00,72.0,-99.9,-100.00,SW,228,10.0,11.0,-999,-99.99,,,-99.99,,2013-07-13 04:44:00,
2013-07-12 22:52:00,72.0,-99.9,-100.00,SW,228,10.0,11.0,-999,-99.99,,,-99.99,,2013-07-13 04:52:00,